Snowfall_Accumulation
0.0 0.0 0.0 0.0 0.0 0.0 0.0 0.0 0.0 0.0 0.0 0.0 0.0 0.0 0.0 0.0 0.0 0.0 0.0 0.0 0.0 0.0 0.0 0.0 0.0 0.0 0.0 0.0 0.0 0.0 0.0 0.0 0.0 0.0 0.0 0.0 0.0 0.0 0.0 0.0 0.0 0.0 0.0
0.0 0.0 0.0 0.0 0.0 0.0 0.0 0.0 0.0 0.0 0.0 0.0 0.0 0.0 0.0 0.0 0.0 0.0 0.0 0.0 0.0 0.0 0.0 0.0 0.0 0.0 0.0 0.0 0.0 0.0 0.0 0.0 0.0 0.0 0.0 0.0 0.0 0.0 0.0 0.0 0.0 0.0 0.0
0.0 0.0 0.0 0.0 0.0 0.0 0.0 0.0 0.0 0.0 0.0 0.0 0.0 0.0 0.0 0.0 0.0 0.0 0.0 0.0 0.0 0.0 0.0 0.0 0.0 0.0 0.0 0.0 0.0 0.0 0.0 0.0 0.0 0.0 0.0 0.0 0.0 0.0 0.0 0.0 0.0 0.0 0.0
0.0 0.0 0.0 0.0 0.0 0.0 0.0 0.0 0.0 0.0 0.0 0.0 0.0 0.0 0.0 0.0 0.0 0.0 0.0 0.0 0.0 0.0 0.0 0.0 0.0 0.0 0.0 0.0 0.0 0.0 0.0 0.0 0.0 0.0 0.0 0.0 0.0 0.0 0.0 0.0 0.0 0.0 0.0
0.0 0.0 0.0 0.0 0.0 0.0 0.0 0.0 0.0 0.0 0.0 0.0 0.0 0.0 0.0 0.0 0.0 0.0 0.0 0.0 0.0 0.0 0.0 0.0 0.0 0.0 0.0 0.0 0.0 0.0 0.0 0.0 0.0 0.0 0.0 0.0 0.0 0.0 0.0 0.0 0.0 0.0 0.0
0.0 0.0 0.0 0.0 0.0 0.0 0.0 0.0 0.0 0.0 0.0 0.0 0.0 0.0 0.0 0.0 0.0 0.0 0.0 0.0 0.0 0.0 0.0 0.0 0.0 0.0 0.0 0.0 0.0 0.0 0.0 0.0 0.0 0.0 0.0 0.0 0.0 0.0 0.0 0.1 0.0 0.0 0.0
0.0 0.0 0.0 0.0 0.0 0.0 0.0 0.0 0.0 0.0 0.0 0.0 0.0 0.0 0.0 0.0 0.0 0.0 0.0 0.0 0.0 0.0 0.0 0.0 0.0 0.0 0.0 0.0 0.0 0.0 0.0 0.0 0.0 0.0 0.0 0.0 0.0 0.0 0.5 0.9 0.4 0.3 0.0
0.0 0.0 0.0 0.0 0.0 0.0 0.0 0.0 0.0 0.0 0.0 0.0 0.0 0.0 0.0 0.0 0.0 0.0 0.0 0.0 0.0 0.0 0.0 0.0 0.0 0.0 0.0 0.0 0.0 0.0 0.0 0.0 0.0 0.0 0.0 0.0 0.0 0.0 0.0 0.0 1.1 1.2 0.0
0.0 0.0 0.0 0.1 0.0 0.0 0.0 0.0 0.0 0.0 0.0 0.0 0.0 0.0 0.0 0.0 0.0 0.0 0.0 0.0 0.0 0.0 0.0 0.0 0.0 0.0 0.0 0.0 0.0 0.0 0.0 0.0 0.0 0.0 0.0 0.0 0.0 0.0 0.0 0.0 0.0 2.5 3.0
0.0 0.0 0.0 0.4 0.0 0.0 0.0 0.0 0.0 0.0 0.0 0.0 0.0 0.0 0.0 0.0 0.0 0.0 0.0 0.0 0.0 0.0 0.0 0.0 0.0 0.0 0.0 0.0 0.0 0.0 0.0 0.0 0.0 0.0 0.0 0.0 0.0 0.0 0.0 0.0 0.0 0.0 1.3
0.1 0.5 0.6 1.3 0.0 0.0 0.0 0.0 0.2 0.0 0.0 0.0 0.0 0.0 0.0 0.0 0.0 0.0 0.0 0.0 0.0 0.0 0.0 0.0 0.0 0.0 0.0 0.0 0.0 0.0 0.0 0.0 0.0 0.0 0.0 0.0 0.0 0.0 0.0 0.0 0.0 0.0 0.1
0.5 0.4 1.6 2.2 0.7 0.0 0.1 0.0 0.0 0.0 0.0 0.0 0.0 0.0 0.0 0.0 0.0 0.0 0.0 0.0 0.0 0.0 0.0 0.0 0.0 0.0 0.0 0.0 0.0 0.0 0.0 0.0 0.0 0.0 0.0 0.0 0.0 0.0 0.1 0.0 0.0 0.0 0.1
0.9 1.0 6.0 7.4 4.4 1.4 0.2 0.0 0.0 0.0 0.0 0.0 0.0 0.0 0.0 0.0 0.0 0.0 0.0 0.0 0.0 0.0 0.0 0.0 0.0 0.0 0.0 0.0 0.0 0.0 0.0 0.0 0.0 0.0 0.0 0.1 0.0 0.2 0.3 0.1 0.1 0.1 0.1
3.9 5.5 8.7 11.4 6.7 3.2 1.3 0.4 0.0 0.0 0.0 0.0 0.0 0.2 0.1 0.1 0.0 0.0 0.0 0.0 0.0 0.0 0.1 0.0 0.0 0.0 0.0 0.5 0.4 0.2 0.1 0.0 0.0 0.3 0.3 0.3 0.1 0.3 0.3 0.1 0.2 0.1 0.2
2.3 4.2 6.6 9.0 6.7 6.1 2.7 1.0 0.5 0.0 0.0 0.3 0.2 0.1 0.0 0.4 0.3 0.5 0.0 0.0 0.0 0.5 0.4 0.5 0.9 0.5 0.3 0.7 1.1 0.0 0.2 0.1 0.1 0.0 0.0 0.0 0.0 0.1 0.0 0.4 0.6 0.6 0.5
2.1 3.1 4.0 4.6 4.3 1.9 2.2 1.2 1.2 0.0 0.0 0.4 0.5 0.4 0.7 0.6 0.7 0.7 0.4 0.4 0.5 0.4 0.6 0.9 0.8 0.2 0.2 0.8 1.1 0.8 0.1 0.0 0.0 0.1 0.0 0.0 0.0 0.0 0.0 0.1 0.2 0.1 0.8
1.2 3.7 3.6 3.1 2.3 1.1 0.4 0.5 0.4 0.0 0.0 0.0 0.3 0.7 0.6 0.8 0.7 0.6 0.5 0.5 0.7 0.7 0.6 1.0 1.1 0.5 1.0 0.8 0.8 0.1 0.0 0.3 0.1 0.1 0.0 0.0 0.0 0.0 0.1 0.3 0.1 0.0 0.1
0.0 0.5 0.7 0.5 0.2 0.4 0.2 0.1 0.0 0.0 0.0 0.0 0.0 0.4 0.6 0.5 0.4 0.4 0.5 0.3 0.7 0.9 1.0 1.0 1.2 2.2 0.4 0.3 0.6 1.1 0.0 0.1 0.0 0.0 0.2 0.2 0.0 0.1 0.6 1.1 1.0 1.1 1.2
0.2 0.1 0.0 0.0 0.0 0.0 0.0 0.0 0.5 0.1 0.0 1.7 1.6 1.3 0.6 1.4 1.0 0.4 1.2 1.0 1.0 1.4 0.9 0.7 1.8 1.7 0.7 0.1 0.5 1.3 2.2 2.5 0.1 0.0 0.4 0.5 0.3 1.6 1.2 3.6 3.6 1.7 0.7
0.0 0.0 0.0 0.0 0.0 0.0 0.0 0.9 0.5 0.3 1.5 1.3 1.5 2.2 2.3 2.7 2.5 2.1 2.1 1.8 1.3 1.0 0.9 1.3 2.0 1.3 0.4 0.3 0.3 1.5 3.3 6.1 4.3 2.4 0.7 1.6 1.1 1.5 1.6 4.9 5.7 5.6 2.6
0.0 0.0 0.0 0.0 0.0 0.0 0.1 0.3 0.5 1.3 1.2 1.6 2.9 4.0 3.8 3.3 2.9 2.6 1.9 1.5 1.6 1.4 1.7 1.9 2.5 1.1 0.4 0.3 0.4 0.9 3.4 8.5 9.2 6.2 2.8 1.9 4.0 3.4 2.6 5.3 7.1 9.3 5.0
0.0 0.0 0.0 0.0 0.0 0.0 0.0 0.4 1.0 1.1 1.3 1.9 2.1 2.2 2.7 2.8 2.7 2.5 2.4 2.1 1.7 1.6 1.3 1.0 2.1 0.7 0.9 0.8 0.7 1.4 1.8 3.6 10.1 10.6 6.2 7.7 8.9 7.6 7.7 8.1 10.0 8.3 6.1
0.0 0.0 0.0 0.0 0.0 0.0 0.0 0.3 0.8 0.8 1.6 2.3 2.5 2.4 2.0 2.2 2.0 2.0 2.0 1.5 1.1 0.9 0.7 0.8 1.5 1.0 0.9 1.2 1.9 2.9 3.1 6.3 8.2 14.3 19.2 18.9 15.8 11.1 12.3 11.3 10.8 10.2 13.0
0.0 0.0 0.0 0.0 0.0 0.2 0.3 0.3 0.2 0.4 0.9 1.4 1.9 1.9 2.2 2.4 2.0 1.9 1.5 1.5 1.2 1.0 0.9 1.9 3.5 2.6 2.5 4.8 5.4 9.2 12.5 11.4 13.4 18.5 20.9 23.5 22.2 16.7 15.0 12.7 10.2 9.9 11.3
0.2 0.1 0.0 0.0 0.4 0.3 0.4 0.4 0.4 0.4 0.7 0.5 1.2 1.6 1.7 2.1 1.9 1.9 2.0 1.2 1.6 3.3 4.9 6.2 6.3 13.4 16.0 18.5 15.8 15.1 16.3 21.4 17.9 17.7 19.1 21.8 22.5 19.8 15.6 13.8 9.7 10.8 10.6
0.1 0.2 0.1 0.1 0.3 0.3 0.6 0.6 0.4 0.4 0.7 0.6 0.9 0.7 1.4 2.2 2.4 2.2 3.4 3.2 5.9 6.6 8.6 14.4 17.8 13.9 14.8 14.5 11.5 11.1 13.3 13.6 20.3 22.5 25.1 26.1 27.6 26.2 27.2 25.6 19.4 16.5 14.9